Tracking 29892 objects as of 21-Nov-2024
HD Live streaming from Space Station
objects crossing your sky now

STARLINK-5812

Track STARLINK-5812 now!
10-day predictions
STARLINK-5812 is classified as:


NORAD ID: 55774
Int'l Code: 2023-028AK
Perigee: 577.1 km
Apogee: 581.3 km
Inclination: 70.0 °
Period: 96.1 minutes
Semi major axis: 6950 km
RCS: Unknown
Launch date: March 3, 2023
Source: United States (US)
Launch site: AIR FORCE WESTERN TEST RANGE (AFWTR)
Your satellite tracking list
Your tracking list is empty




NASA's NSSDC Master Catalog

Two Line Element Set (TLE):
1 55774U 23028AK  24325.48995753  .00000521  00000-0  51454-4 0  9990
2 55774  69.9991 340.0361 0003035 259.4428 100.6389 14.98339051 95504
Source of the keplerian elements: AFSPC